Regional Weather Roundup
Issued by NWS

Home | Current Version | Previous Version | Text Only | Print | Product List | Glossary On
Versions: 1 2 3 4 5 6 7 8 9 10 11 12 13 14 15 16 17 18 19 20 21 22 23 24 25 26 27 28
000
ASUS44 KJAN 231810
RWRMS

MISSISSIPPI HOURLY WEATHER ROUNDUP
NATIONAL WEATHER SERVICE JACKSON MS
100 PM CDT WED AUG 23 2017

NOTE: "FAIR: INDICATES FEW OR NO CLOUDS BELOW 12,000 FEET WITH NO
SIGNIFICANT WEATHER AND/OR OBSTRUCTIONS TO VISIBILITY.

MSZ001>002-007>008-010>013-018>021-025>028-034>036-231900-
NORTHWEST MISSISSIPPI

CITY           SKY/WX    TMP DP  RH WIND       PRES   REMARKS
BATESVILLE     FAIR      83  70  66 NE3       30.02F
CLEVELAND      FAIR      87  72  60 NE9       29.99F HX  94
GREENWOOD      MOSUNNY   88  73  61 VRB5      29.98F HX  95
6HR MIN TEMP:  71; 6HR MAX TEMP:  89;

GREENVILLE     NOT AVBL
OLIVE BRANCH   CLOUDY   N/A N/A N/A NE5       30.02F
OXFORD         FAIR      82  68  61 NE8       30.04S
TUNICA           N/A     81  72  74 E3        30.03
WINONA         FAIR      84  72  66 NE7       30.00F
$$

MSZ003>006-009-014>017-022>024-029>033-037>039-231900-
NORTHEAST MISSISSIPPI

CITY           SKY/WX    TMP DP  RH WIND       PRES   REMARKS
COLUMBUS AFB   MOSUNNY   86  75  69 N5        29.99F HX  95
6HR MIN TEMP:  74; 6HR MAX TEMP:  87;

STARKVILLE     FAIR      86  70  58 NE6       30.00F HX  90
TUPELO         PTSUNNY   86  67  52 NE9       30.00F
6HR MIN TEMP:  73; 6HR MAX TEMP:  86;

$$

MSZ040-058-231900-
CENTRAL MISSISSIPPI

CITY           SKY/WX    TMP DP  RH WIND       PRES   REMARKS
JACKSON INTL   MOSUNNY   91  76  61 N8        29.98F HX 103
6HR MIN TEMP:  75; 6HR MAX TEMP:  91;

JACKSON HAWKNS NOT AVBL
MADISON        MOCLDY    86  73  66 CALM      29.97F HX  93
MERIDIAN KEY   MOSUNNY   92  76  59 NW10      29.97F HX 104
6HR MIN TEMP:  77; 6HR MAX TEMP:  92;

MERIDIAN NAS   NOT AVBL
RAYMOND          N/A     91  77  62 CALM      29.97F HX 105
VICKSBURG VKS  CLEAR     90  77  66 VRB5      29.95  HX 102
$$

MSZ059>079-231900-
SOUTH MISSISSIPPI

CITY           SKY/WX    TMP DP  RH WIND       PRES   REMARKS
COLUMBIA       FAIR      90 N/A N/A CALM      29.99F
HATTIESBURG    NOT AVBL
MCCOMB         NOT AVBL
NATCHEZ        MOSUNNY   90  75  62 NE6       29.97F HX 100
6HR MIN TEMP:  73; 6HR MAX TEMP:  89;

PINE BELT      MOSUNNY   90  75  61 N5        29.97F HX 100
6HR MIN TEMP:  74; 6HR MAX TEMP:  92;

$$

MSZ080>082-231900-
COASTAL MISSISSIPPI

CITY           SKY/WX    TMP DP  RH WIND       PRES   REMARKS
BAY ST LOUIS   MOSUNNY   90  73  58 CALM      29.95F HX  98
BILOXI         MOSUNNY   89  76  63 S9        29.94F HX 100
6HR MIN TEMP:  76; 6HR MAX TEMP:  90;

PASCAGOULA     NOT AVBL
GULFPORT       NOT AVBL
$$

LAZ007>009-015>016-023>026-231900-
NORTHEAST LOUISIANA

CITY           SKY/WX    TMP DP  RH WIND       PRES   REMARKS
BASTROP        FAIR      91  78  65 NE5       29.98F HX 105
TALLULAH/VBURG SUNNY     90  77  65 VRB3      29.96F HX 103
6HR MIN TEMP:  73; 6HR MAX TEMP:  90;

VIDALIA          N/A    N/A N/A N/A MISG      29.95
$$




USA.gov is the U.S. government's official web portal to all federal, state and local government web resources and services.